Terminal Aerodrome Forecast
Issued by NWS Columbia, SC

Home | Current Version | Previous Version | Text Only | Print | Product List | Glossary On
Versions: 1 2 3 4 5 6 7 8 9 10 11 12 13 14 15 16 17 18 19 20 21 22 23 24 25 26 27 28 29 30 31 32 33 34 35 36 37 38 39 40 41 42 43 44 45 46 47 48 49 50
000
FTUS42 KCAE 260847 AAA
TAFAGS
TAF AMD
KAGS 260847Z 2609/2706 14004KT 5SM BR OVC006
      TEMPO 2609/2612 3SM BR OVC004
     FM261400 19004KT P6SM BKN025
     FM261600 18010KT P6SM VCSH BKN035
      TEMPO 2618/2622 SHRA=

USA.gov is the U.S. government's official web portal to all federal, state and local government web resources and services.